date,time,SUV Intensity [MED/Hr],UV Index,Daily total [MED],Since Last [MED]
05/05/2022,00:07:42,0.000,0.0,0.0,0.0
05/05/2022,00:08:40,0.001,0.0,0.0,0.0
05/05/2022,00:09:43,-0.000,0.0,0.0,0.0
05/05/2022,00:10:42,0.000,0.0,0.0,0.0
05/05/2022,00:11:43,0.000,0.0,0.0,0.0
05/05/2022,00:12:42,0.000,0.0,0.0,0.0
05/05/2022,00:13:42,-0.001,0.0,0.0,0.0
05/05/2022,00:14:50,0.001,0.0,0.0,0.0
05/05/2022,00:16:50,0.000,0.0,0.0,0.0
05/05/2022,00:18:44,0.001,0.0,0.0,0.0
05/05/2022,00:19:41,0.000,0.0,0.0,0.0
05/05/2022,00:20:41,0.000,0.0,0.0,0.0
05/05/2022,00:21:50,0.000,0.0,0.0,0.0
05/05/2022,00:23:43,0.000,0.0,0.0,0.0
05/05/2022,00:24:42,0.000,0.0,0.0,0.0
05/05/2022,00:25:42,-0.000,0.0,0.0,0.0
05/05/2022,00:26:42,0.000,0.0,0.0,0.0
05/05/2022,00:27:42,0.000,0.0,0.0,0.0
05/05/2022,00:28:41,-0.000,0.0,0.0,0.0
05/05/2022,00:29:42,0.000,0.0,0.0,0.0
05/05/2022,00:30:42,0.001,0.0,0.0,0.0
05/05/2022,00:31:44,-0.001,0.0,0.0,0.0
05/05/2022,00:32:42,0.000,0.0,0.0,0.0
05/05/2022,00:33:42,-0.000,0.0,0.0,0.0
05/05/2022,00:34:50,0.000,0.0,0.0,0.0
05/05/2022,00:36:42,0.000,0.0,0.0,0.0
05/05/2022,00:37:41,-0.001,0.0,0.0,0.0
05/05/2022,00:38:42,-0.000,0.0,0.0,0.0
05/05/2022,00:39:42,0.001,0.0,0.0,0.0
05/05/2022,00:40:42,0.001,0.0,0.0,0.0
05/05/2022,00:41:41,0.000,0.0,0.0,0.0
05/05/2022,00:42:50,0.000,0.0,0.0,0.0
05/05/2022,00:44:43,0.000,0.0,0.0,0.0
05/05/2022,00:45:42,0.000,0.0,0.0,0.0
05/05/2022,00:46:42,-0.001,0.0,0.0,0.0
05/05/2022,00:47:42,0.000,0.0,0.0,0.0
05/05/2022,00:48:42,0.000,0.0,0.0,0.0
05/05/2022,00:49:42,-0.001,0.0,0.0,0.0
05/05/2022,00:50:42,0.000,0.0,0.0,0.0
05/05/2022,00:51:42,0.000,0.0,0.0,0.0
05/05/2022,00:52:50,0.000,0.0,0.0,0.0
05/05/2022,00:54:42,0.000,0.0,0.0,0.0
05/05/2022,00:55:42,0.000,0.0,0.0,0.0
05/05/2022,00:56:42,-0.001,0.0,0.0,0.0
05/05/2022,00:57:42,0.000,0.0,0.0,0.0
05/05/2022,00:58:42,-0.001,0.0,0.0,0.0
05/05/2022,00:59:42,0.000,0.0,0.0,0.0
05/05/2022,01:00:42,0.000,0.0,0.0,0.0
05/05/2022,01:01:42,-0.000,0.0,0.0,0.0
05/05/2022,01:02:50,0.000,0.0,0.0,0.0
05/05/2022,01:04:43,0.000,0.0,0.0,0.0
05/05/2022,01:05:50,0.000,0.0,0.0,0.0
05/05/2022,01:07:43,-0.001,0.0,0.0,0.0
05/05/2022,01:08:42,0.000,0.0,0.0,0.0
05/05/2022,01:09:42,0.000,0.0,0.0,0.0
05/05/2022,01:10:42,0.001,0.0,0.0,0.0
05/05/2022,01:11:41,0.000,0.0,0.0,0.0
05/05/2022,01:12:42,0.000,0.0,0.0,0.0
05/05/2022,01:13:42,0.000,0.0,0.0,0.0
05/05/2022,01:14:42,0.001,0.0,0.0,0.0
05/05/2022,01:15:51,-0.000,0.0,0.0,0.0
05/05/2022,01:17:43,-0.001,0.0,0.0,0.0
05/05/2022,01:18:42,0.000,0.0,0.0,0.0
05/05/2022,01:19:42,0.000,0.0,0.0,0.0
05/05/2022,01:20:42,-0.001,0.0,0.0,0.0
05/05/2022,01:21:42,-0.001,0.0,0.0,0.0
05/05/2022,01:22:42,0.000,0.0,0.0,0.0
05/05/2022,01:23:42,0.000,0.0,0.0,0.0
05/05/2022,01:24:42,-0.001,0.0,0.0,0.0
05/05/2022,01:25:42,0.001,0.0,0.0,0.0
05/05/2022,01:26:42,0.001,0.0,0.0,0.0
05/05/2022,01:27:42,0.000,0.0,0.0,0.0
05/05/2022,01:28:59,0.001,0.0,0.0,0.0
05/05/2022,01:30:42,0.001,0.0,0.0,0.0
05/05/2022,01:31:42,0.000,0.0,0.0,0.0
05/05/2022,01:32:42,0.000,0.0,0.0,0.0
05/05/2022,01:33:42,0.001,0.0,0.0,0.0
05/05/2022,01:34:42,0.000,0.0,0.0,0.0
05/05/2022,01:35:42,0.000,0.0,0.0,0.0
05/05/2022,01:36:42,0.001,0.0,0.0,0.0
05/05/2022,01:37:42,0.001,0.0,0.0,0.0
05/05/2022,01:38:42,0.000,0.0,0.0,0.0
05/05/2022,01:39:51,0.001,0.0,0.0,0.0
05/05/2022,01:41:43,0.000,0.0,0.0,0.0
05/05/2022,01:42:43,-0.001,0.0,0.0,0.0
05/05/2022,01:43:41,0.000,0.0,0.0,0.0
05/05/2022,01:44:42,0.000,0.0,0.0,0.0
05/05/2022,01:45:42,0.001,0.0,0.0,0.0
05/05/2022,01:46:42,0.000,0.0,0.0,0.0
05/05/2022,01:47:42,0.000,0.0,0.0,0.0
05/05/2022,01:48:42,-0.000,0.0,0.0,0.0
05/05/2022,01:49:50,0.001,0.0,0.0,0.0
05/05/2022,01:51:42,0.000,0.0,0.0,0.0
05/05/2022,01:52:42,0.001,0.0,0.0,0.0
05/05/2022,01:53:42,0.001,0.0,0.0,0.0
05/05/2022,01:54:42,0.001,0.0,0.0,0.0
05/05/2022,01:55:42,0.001,0.0,0.0,0.0
05/05/2022,01:56:42,0.000,0.0,0.0,0.0
05/05/2022,01:57:42,0.000,0.0,0.0,0.0
05/05/2022,01:58:42,0.001,0.0,0.0,0.0
05/05/2022,01:59:51,0.001,0.0,0.0,0.0
05/05/2022,02:01:43,0.001,0.0,0.0,0.0
05/05/2022,02:02:42,0.001,0.0,0.0,0.0
05/05/2022,02:03:49,0.001,0.0,0.0,0.0
05/05/2022,02:04:41,-0.000,0.0,0.0,0.0
05/05/2022,02:05:42,0.001,0.0,0.0,0.0
05/05/2022,02:06:42,0.001,0.0,0.0,0.0
05/05/2022,02:07:43,0.001,0.0,0.0,0.0
05/05/2022,02:08:42,0.000,0.0,0.0,0.0
05/05/2022,02:09:51,0.001,0.0,0.0,0.0
05/05/2022,02:11:51,0.001,0.0,0.0,0.0
05/05/2022,02:13:43,0.001,0.0,0.0,0.0
05/05/2022,02:14:41,0.000,0.0,0.0,0.0
05/05/2022,02:15:42,0.002,0.0,0.0,0.0
05/05/2022,02:16:42,0.001,0.0,0.0,0.0
05/05/2022,02:17:42,-0.000,0.0,0.0,0.0
05/05/2022,02:18:42,0.001,0.0,0.0,0.0
05/05/2022,02:19:42,0.001,0.0,0.0,0.0
05/05/2022,02:20:50,0.001,0.0,0.0,0.0
05/05/2022,02:22:43,-0.000,0.0,0.0,0.0
05/05/2022,02:23:42,0.001,0.0,0.0,0.0
05/05/2022,02:24:43,0.001,0.0,0.0,0.0
05/05/2022,02:25:42,0.001,0.0,0.0,0.0
05/05/2022,02:26:42,0.001,0.0,0.0,0.0
05/05/2022,02:27:42,0.001,0.0,0.0,0.0
05/05/2022,02:28:43,0.001,0.0,0.0,0.0
05/05/2022,02:29:42,0.001,0.0,0.0,0.0
05/05/2022,02:30:51,0.001,0.0,0.0,0.0
05/05/2022,02:32:43,0.001,0.0,0.0,0.0
05/05/2022,02:33:42,0.001,0.0,0.0,0.0
05/05/2022,02:34:42,0.001,0.0,0.0,0.0
05/05/2022,02:35:42,0.001,0.0,0.0,0.0
05/05/2022,02:36:42,0.001,0.0,0.0,0.0
05/05/2022,02:37:42,0.000,0.0,0.0,0.0
05/05/2022,02:38:42,0.000,0.0,0.0,0.0
05/05/2022,02:39:42,0.001,0.0,0.0,0.0
05/05/2022,02:40:42,0.001,0.0,0.0,0.0
05/05/2022,02:41:42,0.001,0.0,0.0,0.0
05/05/2022,02:42:42,0.001,0.0,0.0,0.0
05/05/2022,02:43:42,0.001,0.0,0.0,0.0
05/05/2022,02:44:50,0.000,0.0,0.0,0.0
05/05/2022,02:46:43,0.001,0.0,0.0,0.0
05/05/2022,02:47:51,-0.000,0.0,0.0,0.0
05/05/2022,02:49:42,0.001,0.0,0.0,0.0
05/05/2022,02:50:42,0.001,0.0,0.0,0.0
05/05/2022,02:51:42,0.001,0.0,0.0,0.0
05/05/2022,02:52:42,0.001,0.0,0.0,0.0
05/05/2022,02:53:42,0.000,0.0,0.0,0.0
05/05/2022,02:54:42,0.001,0.0,0.0,0.0
05/05/2022,02:55:42,0.001,0.0,0.0,0.0
05/05/2022,02:56:42,-0.000,0.0,0.0,0.0
05/05/2022,02:57:58,0.001,0.0,0.0,0.0
05/05/2022,02:59:43,0.001,0.0,0.0,0.0
05/05/2022,03:00:43,0.000,0.0,0.0,0.0
05/05/2022,03:01:49,0.001,0.0,0.0,0.0
05/05/2022,03:02:43,0.001,0.0,0.0,0.0
05/05/2022,03:03:42,0.000,0.0,0.0,0.0
05/05/2022,03:04:42,0.001,0.0,0.0,0.0
05/05/2022,03:05:42,0.000,0.0,0.0,0.0
05/05/2022,03:06:42,0.001,0.0,0.0,0.0
05/05/2022,03:07:42,-0.000,0.0,0.0,0.0
05/05/2022,03:08:42,-0.001,0.0,0.0,0.0
05/05/2022,03:09:42,0.000,0.0,0.0,0.0
05/05/2022,03:10:42,0.001,0.0,0.0,0.0
05/05/2022,03:11:51,0.000,0.0,0.0,0.0
05/05/2022,03:13:42,0.000,0.0,0.0,0.0
05/05/2022,03:14:42,0.000,0.0,0.0,0.0
05/05/2022,03:15:42,0.001,0.0,0.0,0.0
05/05/2022,03:16:43,0.001,0.0,0.0,0.0
05/05/2022,03:17:41,0.001,0.0,0.0,0.0
05/05/2022,03:18:52,0.000,0.0,0.0,0.0
05/05/2022,03:20:43,0.000,0.0,0.0,0.0
05/05/2022,03:21:50,0.000,0.0,0.0,0.0
05/05/2022,03:22:42,0.000,0.0,0.0,0.0
05/05/2022,03:23:42,0.001,0.0,0.0,0.0
05/05/2022,03:24:42,0.000,0.0,0.0,0.0
05/05/2022,03:25:42,0.001,0.0,0.0,0.0
05/05/2022,03:26:42,-0.001,0.0,0.0,0.0
05/05/2022,03:27:43,0.000,0.0,0.0,0.0
05/05/2022,03:28:43,0.001,0.0,0.0,0.0
05/05/2022,03:29:42,0.001,0.0,0.0,0.0
05/05/2022,03:30:43,-0.001,0.0,0.0,0.0
05/05/2022,03:31:43,0.000,0.0,0.0,0.0
05/05/2022,03:32:42,0.000,0.0,0.0,0.0
05/05/2022,03:33:42,0.000,0.0,0.0,0.0
05/05/2022,03:34:43,0.000,0.0,0.0,0.0
05/05/2022,03:35:42,0.000,0.0,0.0,0.0
05/05/2022,03:36:43,0.001,0.0,0.0,0.0
05/05/2022,03:37:43,0.000,0.0,0.0,0.0
05/05/2022,03:38:43,0.000,0.0,0.0,0.0
05/05/2022,03:39:50,0.000,0.0,0.0,0.0
05/05/2022,03:41:43,0.000,0.0,0.0,0.0
05/05/2022,03:42:43,0.000,0.0,0.0,0.0
05/05/2022,03:43:42,0.000,0.0,0.0,0.0
05/05/2022,03:44:42,0.000,0.0,0.0,0.0
05/05/2022,03:45:42,0.000,0.0,0.0,0.0
05/05/2022,03:46:43,0.000,0.0,0.0,0.0
05/05/2022,03:47:42,0.000,0.0,0.0,0.0
05/05/2022,03:48:42,-0.000,0.0,0.0,0.0
05/05/2022,03:49:50,0.000,0.0,0.0,0.0
05/05/2022,03:50:43,0.000,0.0,0.0,0.0
05/05/2022,03:51:42,0.000,0.0,0.0,0.0
05/05/2022,03:52:42,0.001,0.0,0.0,0.0
05/05/2022,03:53:44,0.000,0.0,0.0,0.0
05/05/2022,03:54:42,0.000,0.0,0.0,0.0
05/05/2022,03:55:42,-0.001,0.0,0.0,0.0
05/05/2022,03:56:42,0.000,0.0,0.0,0.0
05/05/2022,03:57:42,0.001,0.0,0.0,0.0
05/05/2022,03:58:44,0.000,0.0,0.0,0.0
05/05/2022,03:59:42,0.000,0.0,0.0,0.0
05/05/2022,04:00:43,0.000,0.0,0.0,0.0
05/05/2022,04:01:42,0.000,0.0,0.0,0.0
05/05/2022,04:02:50,0.001,0.0,0.0,0.0
05/05/2022,04:04:51,0.001,0.0,0.0,0.0
05/05/2022,04:06:43,0.000,0.0,0.0,0.0
05/05/2022,04:07:42,0.000,0.0,0.0,0.0
05/05/2022,04:08:42,0.000,0.0,0.0,0.0
05/05/2022,04:09:42,0.000,0.0,0.0,0.0
05/05/2022,04:10:51,0.000,0.0,0.0,0.0
05/05/2022,04:12:43,0.001,0.0,0.0,0.0
05/05/2022,04:13:43,0.001,0.0,0.0,0.0
05/05/2022,04:14:43,0.001,0.0,0.0,0.0
05/05/2022,04:15:44,0.001,0.0,0.0,0.0
05/05/2022,04:16:42,0.000,0.0,0.0,0.0
05/05/2022,04:17:43,0.001,0.0,0.0,0.0
05/05/2022,04:18:43,0.001,0.0,0.0,0.0
05/05/2022,04:19:42,0.001,0.0,0.0,0.0
05/05/2022,04:20:51,0.001,0.0,0.0,0.0
05/05/2022,04:22:43,0.000,0.0,0.0,0.0
05/05/2022,04:23:42,0.001,0.0,0.0,0.0
05/05/2022,04:24:42,0.001,0.0,0.0,0.0
05/05/2022,04:25:42,0.001,0.0,0.0,0.0
05/05/2022,04:26:43,0.001,0.0,0.0,0.0
05/05/2022,04:27:42,0.001,0.0,0.0,0.0
05/05/2022,04:28:44,0.001,0.0,0.0,0.0
05/05/2022,04:29:43,0.001,0.0,0.0,0.0
05/05/2022,04:30:43,0.002,0.0,0.0,0.0
05/05/2022,04:31:43,0.001,0.0,0.0,0.0
05/05/2022,04:32:42,0.002,0.0,0.0,0.0
05/05/2022,04:33:51,0.001,0.0,0.0,0.0
05/05/2022,04:35:51,0.001,0.0,0.0,0.0
05/05/2022,04:37:43,0.002,0.0,0.0,0.0
05/05/2022,04:38:42,0.003,0.0,0.0,0.0
05/05/2022,04:39:42,0.002,0.0,0.0,0.0
05/05/2022,04:40:42,0.002,0.0,0.0,0.0
05/05/2022,04:41:42,0.003,0.0,0.0,0.0
05/05/2022,04:42:42,0.002,0.0,0.0,0.0
05/05/2022,04:43:42,0.003,0.0,0.0,0.0
05/05/2022,04:44:42,0.002,0.0,0.0,0.0
05/05/2022,04:45:42,0.003,0.0,0.0,0.0
05/05/2022,04:46:42,0.003,0.0,0.0,0.0
05/05/2022,04:47:42,0.003,0.0,0.0,0.0
05/05/2022,04:48:50,0.004,0.0,0.0,0.0
05/05/2022,04:49:42,0.004,0.0,0.0,0.0
05/05/2022,04:50:42,0.003,0.0,0.0,0.0
05/05/2022,04:51:51,0.004,0.0,0.0,0.0
05/05/2022,04:53:43,0.005,0.0,0.0,0.0
05/05/2022,04:54:41,0.005,0.0,0.0,0.0
05/05/2022,04:55:42,0.005,0.0,0.0,0.0
05/05/2022,04:56:42,0.005,0.0,0.0,0.0
05/05/2022,04:57:42,0.005,0.0,0.0,0.0
05/05/2022,04:58:51,0.006,0.0,0.0,0.0
05/05/2022,04:59:42,0.005,0.0,0.0,0.0
05/05/2022,05:00:43,0.006,0.0,0.0,0.0
05/05/2022,05:01:43,0.008,0.0,0.0,0.0
05/05/2022,05:02:42,0.006,0.0,0.0,0.0
05/05/2022,05:03:42,0.008,0.0,0.0,0.0
05/05/2022,05:04:42,0.008,0.0,0.001,0.001
05/05/2022,05:05:42,0.008,0.0,0.001,0.0
05/05/2022,05:06:42,0.009,0.0,0.001,0.0
05/05/2022,05:07:42,0.009,0.0,0.001,0.0
05/05/2022,05:08:43,0.009,0.0,0.001,0.0
05/05/2022,05:09:42,0.010,0.0,0.001,0.0
05/05/2022,05:10:42,0.011,0.0,0.001,0.0
05/05/2022,05:11:42,0.012,0.0,0.002,0.001
05/05/2022,05:12:42,0.012,0.0,0.002,0.0
05/05/2022,05:13:43,0.013,0.0,0.002,0.0
05/05/2022,05:14:45,0.014,0.0,0.002,0.0
05/05/2022,05:15:42,0.014,0.0,0.003,0.001
05/05/2022,05:16:45,0.014,0.0,0.003,0.0
05/05/2022,05:17:43,0.015,0.0,0.003,0.0
05/05/2022,05:18:43,0.016,0.0,0.003,0.0
05/05/2022,05:19:51,0.017,0.0,0.004,0.001
05/05/2022,05:21:43,0.018,0.0,0.004,0.0
05/05/2022,05:22:42,0.018,0.0,0.004,0.0
05/05/2022,05:23:42,0.019,0.0,0.005,0.001
05/05/2022,05:24:42,0.020,0.0,0.005,0.0
05/05/2022,05:25:42,0.021,0.0,0.005,0.0
05/05/2022,05:26:43,0.022,0.0,0.006,0.001
05/05/2022,05:27:42,0.021,0.0,0.006,0.0
05/05/2022,05:28:42,0.022,0.0,0.006,0.0
05/05/2022,05:29:51,0.022,0.0,0.007,0.001
05/05/2022,05:31:52,0.023,0.0,0.008,0.001
05/05/2022,05:33:51,0.022,0.0,0.008,0.0
05/05/2022,05:35:43,0.023,0.0,0.009,0.001
05/05/2022,05:36:42,0.025,0.0,0.009,0.0
05/05/2022,05:37:42,0.026,0.0,0.01,0.001
05/05/2022,05:38:42,0.025,0.0,0.01,0.0
05/05/2022,05:39:43,0.025,0.0,0.011,0.001
05/05/2022,05:40:51,0.026,0.0,0.011,0.0
05/05/2022,05:42:43,0.027,0.0,0.012,0.001
05/05/2022,05:43:42,0.028,0.0,0.012,0.0
05/05/2022,05:44:43,0.029,0.0,0.013,0.001
05/05/2022,05:45:43,0.030,0.0,0.013,0.0
05/05/2022,05:46:43,0.029,0.0,0.014,0.001
05/05/2022,05:47:43,0.031,0.0,0.014,0.0
05/05/2022,05:48:43,0.031,0.0,0.015,0.001
05/05/2022,05:49:43,0.033,0.0,0.015,0.0
05/05/2022,05:50:42,0.033,0.0,0.016,0.001
05/05/2022,05:51:42,0.033,0.0,0.017,0.001
05/05/2022,05:52:42,0.035,0.0,0.017,0.0
05/05/2022,05:53:42,0.035,0.0,0.018,0.001
05/05/2022,05:54:43,0.036,0.0,0.018,0.0
05/05/2022,05:55:43,0.037,0.0,0.019,0.001
05/05/2022,05:56:43,0.036,0.0,0.02,0.001
05/05/2022,05:57:51,0.039,0.0,0.02,0.0
05/05/2022,05:59:43,0.041,0.0,0.021,0.001
05/05/2022,06:00:42,0.042,0.0,0.022,0.001
05/05/2022,06:01:42,0.044,0.0,0.023,0.001
05/05/2022,06:02:43,0.044,0.0,0.024,0.001
05/05/2022,06:03:43,0.046,0.0,0.024,0.0
05/05/2022,06:04:42,0.046,0.0,0.025,0.001
05/05/2022,06:05:42,0.048,0.0,0.026,0.001
05/05/2022,06:06:43,0.049,0.0,0.027,0.001
05/05/2022,06:07:51,0.051,0.0,0.028,0.001
05/05/2022,06:09:44,0.054,0.0,0.029,0.001
05/05/2022,06:10:51,0.054,0.0,0.03,0.001
05/05/2022,06:11:42,0.055,0.0,0.031,0.001
05/05/2022,06:12:45,0.056,0.0,0.032,0.001
05/05/2022,06:13:42,0.057,0.0,0.033,0.001
05/05/2022,06:14:45,0.059,0.0,0.034,0.001
05/05/2022,06:15:42,0.061,0.0,0.035,0.001
05/05/2022,06:16:42,0.061,0.0,0.036,0.001
05/05/2022,06:17:42,0.063,0.0,0.037,0.001
05/05/2022,06:18:51,0.067,0.0,0.038,0.001
05/05/2022,06:19:42,0.068,0.0,0.039,0.001
05/05/2022,06:20:42,0.069,0.0,0.04,0.001
05/05/2022,06:21:42,0.070,0.0,0.042,0.002
05/05/2022,06:22:43,0.070,0.0,0.043,0.001
05/05/2022,06:23:42,0.071,0.0,0.044,0.001
05/05/2022,06:24:43,0.075,0.0,0.045,0.001
05/05/2022,06:25:43,0.078,0.0,0.046,0.001
05/05/2022,06:26:43,0.081,0.0,0.048,0.002
05/05/2022,06:27:42,0.086,0.0,0.049,0.001
05/05/2022,06:28:51,0.091,0.0,0.051,0.002
05/05/2022,06:30:43,0.099,0.0,0.054,0.003
05/05/2022,06:31:36,0.104,0.0,0.055,0.001
05/05/2022,06:32:43,0.107,0.0,0.057,0.002
05/05/2022,06:33:43,0.110,0.0,0.059,0.002
05/05/2022,06:34:42,0.112,0.0,0.061,0.002
05/05/2022,06:35:43,0.116,0.0,0.063,0.002
05/05/2022,06:36:44,0.119,0.0,0.065,0.002
05/05/2022,06:37:43,0.124,0.0,0.067,0.002
05/05/2022,06:38:51,0.128,0.0,0.069,0.002
05/05/2022,06:40:52,0.132,0.0,0.074,0.005
05/05/2022,06:42:51,0.133,0.0,0.078,0.004
05/05/2022,06:44:43,0.134,0.0,0.082,0.004
05/05/2022,06:45:43,0.133,0.0,0.084,0.002
05/05/2022,06:46:49,0.130,0.0,0.087,0.003
05/05/2022,06:47:42,0.131,0.0,0.089,0.002
05/05/2022,06:48:43,0.132,0.0,0.091,0.002
05/05/2022,06:49:51,0.134,0.0,0.093,0.002
05/05/2022,06:51:44,0.139,0.0,0.098,0.005
05/05/2022,06:52:43,0.139,0.0,0.1,0.002
05/05/2022,06:53:43,0.143,0.0,0.102,0.002
05/05/2022,06:54:43,0.146,0.0,0.105,0.003
05/05/2022,06:55:43,0.149,0.0,0.107,0.002
05/05/2022,06:56:42,0.154,0.0,0.11,0.003
05/05/2022,06:57:42,0.161,0.0,0.112,0.002
05/05/2022,06:58:42,0.165,0.0,0.115,0.003
05/05/2022,06:59:51,0.170,0.0,0.118,0.003
05/05/2022,07:01:43,0.177,0.0,0.123,0.005
05/05/2022,07:02:43,0.187,0.0,0.127,0.004
05/05/2022,07:03:43,0.196,0.0,0.13,0.003
05/05/2022,07:04:43,0.216,0.0,0.133,0.003
05/05/2022,07:05:42,0.221,1.0,0.137,0.004
05/05/2022,07:06:51,0.214,0.0,0.14,0.003
05/05/2022,07:08:43,0.230,1.0,0.147,0.007
05/05/2022,07:09:43,0.229,1.0,0.151,0.004
05/05/2022,07:10:42,0.240,1.0,0.155,0.004
05/05/2022,07:11:42,0.243,1.0,0.159,0.004
05/05/2022,07:12:43,0.248,1.0,0.163,0.004
05/05/2022,07:13:42,0.253,1.0,0.168,0.005
05/05/2022,07:14:42,0.264,1.0,0.172,0.004
05/05/2022,07:15:43,0.277,1.0,0.176,0.004
05/05/2022,07:16:50,0.284,1.0,0.182,0.006
05/05/2022,07:18:51,0.301,1.0,0.191,0.009
05/05/2022,07:20:43,0.310,1.0,0.201,0.01
05/05/2022,07:21:43,0.313,1.0,0.206,0.005
05/05/2022,07:22:43,0.322,1.0,0.211,0.005
05/05/2022,07:23:42,0.331,1.0,0.217,0.006
05/05/2022,07:24:43,0.337,1.0,0.222,0.005
05/05/2022,07:25:42,0.343,1.0,0.228,0.006
05/05/2022,07:26:43,0.348,1.0,0.234,0.006
05/05/2022,07:27:50,0.351,1.0,0.24,0.006
05/05/2022,07:29:43,0.357,1.0,0.251,0.011
05/05/2022,07:30:43,0.367,1.0,0.257,0.006
05/05/2022,07:31:43,0.373,1.0,0.263,0.006
05/05/2022,07:32:43,0.377,1.0,0.27,0.007
05/05/2022,07:33:43,0.385,1.0,0.276,0.006
05/05/2022,07:34:42,0.388,1.0,0.282,0.006
05/05/2022,07:35:42,0.399,1.0,0.289,0.007
05/05/2022,07:36:42,0.396,1.0,0.296,0.007
05/05/2022,07:37:51,0.408,1.0,0.303,0.007
05/05/2022,07:39:43,0.388,1.0,0.315,0.012
05/05/2022,07:40:43,0.389,1.0,0.322,0.007
05/05/2022,07:41:43,0.417,1.0,0.328,0.006
05/05/2022,07:42:43,0.399,1.0,0.335,0.007
05/05/2022,07:43:42,0.425,1.0,0.342,0.007
05/05/2022,07:44:42,0.433,1.0,0.349,0.007
05/05/2022,07:45:43,0.424,1.0,0.356,0.007
05/05/2022,07:46:42,0.449,1.0,0.364,0.008
05/05/2022,07:47:51,0.445,1.0,0.372,0.008
05/05/2022,07:49:43,0.460,1.0,0.386,0.014
05/05/2022,07:50:42,0.481,1.0,0.394,0.008
05/05/2022,07:51:42,0.489,1.0,0.402,0.008
05/05/2022,07:52:43,0.497,1.0,0.41,0.008
05/05/2022,07:53:43,0.501,1.0,0.418,0.008
05/05/2022,07:54:43,0.505,1.0,0.427,0.009
05/05/2022,07:55:44,0.514,1.0,0.436,0.009
05/05/2022,07:56:43,0.509,1.0,0.444,0.008
05/05/2022,07:57:43,0.512,1.0,0.452,0.008
05/05/2022,07:58:43,0.523,1.0,0.461,0.009
05/05/2022,07:59:42,0.511,1.0,0.47,0.009
05/05/2022,08:00:51,0.542,1.0,0.48,0.01
05/05/2022,08:02:43,0.511,1.0,0.496,0.016
05/05/2022,08:03:43,0.518,1.0,0.505,0.009
05/05/2022,08:04:42,0.518,1.0,0.514,0.009
05/05/2022,08:05:42,0.520,1.0,0.523,0.009
05/05/2022,08:06:43,0.463,1.0,0.531,0.008
05/05/2022,08:07:43,0.462,1.0,0.539,0.008
05/05/2022,08:08:43,0.461,1.0,0.546,0.007
05/05/2022,08:09:43,0.466,1.0,0.554,0.008
05/05/2022,08:10:43,0.476,1.0,0.562,0.008
05/05/2022,08:11:43,0.513,1.0,0.57,0.008
05/05/2022,08:12:43,0.467,1.0,0.578,0.008
05/05/2022,08:13:43,0.422,1.0,0.586,0.008
05/05/2022,08:14:51,0.438,1.0,0.594,0.008
05/05/2022,08:16:44,0.574,1.0,0.61,0.016
05/05/2022,08:17:43,0.532,1.0,0.62,0.01
05/05/2022,08:18:43,0.583,1.0,0.628,0.008
05/05/2022,08:19:43,0.454,1.0,0.636,0.008
05/05/2022,08:20:43,0.456,1.0,0.643,0.007
05/05/2022,08:21:42,0.494,1.0,0.651,0.008
05/05/2022,08:22:43,0.673,2.0,0.661,0.01
05/05/2022,08:23:43,0.499,1.0,0.671,0.01
05/05/2022,08:24:52,0.582,1.0,0.681,0.01
05/05/2022,08:26:43,0.547,1.0,0.698,0.017
05/05/2022,08:27:43,0.484,1.0,0.707,0.009
05/05/2022,08:28:43,0.526,1.0,0.716,0.009
05/05/2022,08:29:42,0.626,1.0,0.726,0.01
05/05/2022,08:30:42,0.648,1.0,0.737,0.011
05/05/2022,08:31:42,0.750,2.0,0.748,0.011
05/05/2022,08:32:42,0.686,2.0,0.76,0.012
05/05/2022,08:33:42,0.725,2.0,0.773,0.013
05/05/2022,08:34:42,0.649,1.0,0.785,0.012
05/05/2022,08:35:42,0.635,1.0,0.796,0.011
05/05/2022,08:36:43,0.865,2.0,0.809,0.013
05/05/2022,08:37:43,0.738,2.0,0.823,0.014
05/05/2022,08:38:43,0.720,2.0,0.836,0.013
05/05/2022,08:39:43,0.792,2.0,0.849,0.013
05/05/2022,08:40:43,0.693,2.0,0.861,0.012
05/05/2022,08:41:42,0.811,2.0,0.873,0.012
05/05/2022,08:42:43,0.716,2.0,0.886,0.013
05/05/2022,08:43:43,0.730,2.0,0.898,0.012
05/05/2022,08:44:44,0.677,2.0,0.91,0.012
05/05/2022,08:45:43,0.635,1.0,0.921,0.011
05/05/2022,08:46:42,0.614,1.0,0.931,0.01
05/05/2022,08:47:51,0.604,1.0,0.943,0.012
05/05/2022,08:49:44,0.832,2.0,0.963,0.02
05/05/2022,08:50:43,0.645,1.0,0.975,0.012
05/05/2022,08:51:44,0.544,1.0,0.984,0.009
05/05/2022,08:52:41,0.525,1.0,0.993,0.009
05/05/2022,08:53:42,0.534,1.0,1.002,0.009
05/05/2022,08:54:43,0.541,1.0,1.011,0.009
05/05/2022,08:55:43,0.570,1.0,1.02,0.009
05/05/2022,08:56:43,0.651,1.0,1.03,0.01
05/05/2022,08:57:51,0.679,2.0,1.045,0.015
05/05/2022,08:59:43,0.700,2.0,1.068,0.023
05/05/2022,09:00:43,0.684,2.0,1.08,0.012
05/05/2022,09:02:00,0.703,2.0,1.095,0.015
05/05/2022,09:04:00,1.049,2.0,1.127,0.032
05/05/2022,09:05:52,1.095,3.0,1.154,0.027
05/05/2022,09:07:44,1.115,3.0,1.185,0.031
05/05/2022,09:08:42,1.026,2.0,1.203,0.018
05/05/2022,09:09:42,0.775,2.0,1.216,0.013
05/05/2022,09:10:43,0.724,2.0,1.228,0.012
05/05/2022,09:11:51,0.760,2.0,1.242,0.014
05/05/2022,09:13:43,0.962,2.0,1.269,0.027
05/05/2022,09:14:43,1.160,3.0,1.285,0.016
05/05/2022,09:15:43,1.061,2.0,1.304,0.019
05/05/2022,09:16:43,0.845,2.0,1.319,0.015
05/05/2022,09:17:42,1.117,3.0,1.337,0.018
05/05/2022,09:18:43,1.206,3.0,1.356,0.019
05/05/2022,09:19:43,1.238,3.0,1.376,0.02
05/05/2022,09:20:43,0.849,2.0,1.394,0.018
05/05/2022,09:21:51,0.885,2.0,1.41,0.016
05/05/2022,09:23:43,1.241,3.0,1.449,0.039
05/05/2022,09:24:43,1.257,3.0,1.47,0.021
05/05/2022,09:25:42,0.915,2.0,1.487,0.017
05/05/2022,09:26:43,1.280,3.0,1.507,0.02
05/05/2022,09:27:43,1.279,3.0,1.528,0.021
05/05/2022,09:28:42,1.302,3.0,1.549,0.021
05/05/2022,09:29:42,0.895,2.0,1.566,0.017
05/05/2022,09:30:42,1.334,3.0,1.585,0.019
05/05/2022,09:31:43,1.340,3.0,1.607,0.022
05/05/2022,09:32:42,0.893,2.0,1.628,0.021
05/05/2022,09:33:43,0.865,2.0,1.643,0.015
05/05/2022,09:34:43,0.949,2.0,1.657,0.014
05/05/2022,09:35:43,0.938,2.0,1.675,0.018
05/05/2022,09:36:42,0.932,2.0,1.693,0.018
05/05/2022,09:37:43,0.910,2.0,1.708,0.015
05/05/2022,09:38:40,1.077,2.0,1.725,0.017
05/05/2022,09:39:43,1.122,3.0,1.748,0.023
05/05/2022,09:40:51,0.917,2.0,1.768,0.02
05/05/2022,09:42:44,0.877,2.0,1.796,0.028
05/05/2022,09:43:43,0.873,2.0,1.81,0.014
05/05/2022,09:44:42,0.901,2.0,1.825,0.015
05/05/2022,09:45:42,0.946,2.0,1.842,0.017
05/05/2022,09:46:42,1.435,3.0,1.858,0.016
05/05/2022,09:47:42,1.445,3.0,1.883,0.025
05/05/2022,09:48:42,1.471,3.0,1.907,0.024
05/05/2022,09:49:42,1.336,3.0,1.931,0.024
05/05/2022,09:50:42,1.180,3.0,1.95,0.019
05/05/2022,09:51:42,1.045,2.0,1.968,0.018
05/05/2022,09:52:43,0.978,2.0,1.985,0.017
05/05/2022,09:53:51,0.997,2.0,2.005,0.02
05/05/2022,09:55:52,0.967,2.0,2.037,0.032
05/05/2022,09:57:44,0.893,2.0,2.067,0.03
05/05/2022,09:58:42,0.867,2.0,2.081,0.014
05/05/2022,09:59:43,0.852,2.0,2.096,0.015
05/05/2022,10:00:43,0.852,2.0,2.11,0.014
05/05/2022,10:01:43,0.833,2.0,2.124,0.014
05/05/2022,10:02:43,0.836,2.0,2.138,0.014
05/05/2022,10:03:51,0.871,2.0,2.154,0.016
05/05/2022,10:05:43,1.075,2.0,2.183,0.029
05/05/2022,10:06:42,0.954,2.0,2.199,0.016
05/05/2022,10:07:43,0.921,2.0,2.215,0.016
05/05/2022,10:08:43,0.849,2.0,2.23,0.015
05/05/2022,10:09:42,0.823,2.0,2.243,0.013
05/05/2022,10:10:42,0.810,2.0,2.257,0.014
05/05/2022,10:11:43,0.826,2.0,2.271,0.014
05/05/2022,10:12:43,0.917,2.0,2.285,0.014
05/05/2022,10:13:43,0.870,2.0,2.3,0.015
05/05/2022,10:14:43,0.903,2.0,2.315,0.015
05/05/2022,10:15:42,0.856,2.0,2.329,0.014
05/05/2022,10:16:43,0.836,2.0,2.344,0.015
05/05/2022,10:17:52,0.801,2.0,2.36,0.016
05/05/2022,10:19:43,0.746,2.0,2.383,0.023
05/05/2022,10:20:43,0.734,2.0,2.396,0.013
05/05/2022,10:21:42,0.716,2.0,2.407,0.011
05/05/2022,10:22:43,0.708,2.0,2.419,0.012
05/05/2022,10:23:43,0.717,2.0,2.431,0.012
05/05/2022,10:24:43,0.742,2.0,2.443,0.012
05/05/2022,10:25:43,0.785,2.0,2.456,0.013
05/05/2022,10:26:43,0.842,2.0,2.469,0.013
05/05/2022,10:27:50,0.933,2.0,2.486,0.017
05/05/2022,10:28:43,1.009,2.0,2.5,0.014
05/05/2022,10:29:51,1.129,3.0,2.52,0.02
05/05/2022,10:30:51,1.162,3.0,2.542,0.022
05/05/2022,10:32:43,1.085,2.0,2.577,0.035
05/05/2022,10:33:43,1.005,2.0,2.594,0.017
05/05/2022,10:34:43,0.990,2.0,2.61,0.016
05/05/2022,10:35:43,1.007,2.0,2.627,0.017
05/05/2022,10:36:43,1.031,2.0,2.644,0.017
05/05/2022,10:37:44,1.132,3.0,2.662,0.018
05/05/2022,10:38:42,1.124,3.0,2.68,0.018
05/05/2022,10:39:43,1.168,3.0,2.7,0.02
05/05/2022,10:40:43,1.175,3.0,2.719,0.019
05/05/2022,10:41:43,1.264,3.0,2.74,0.021
05/05/2022,10:42:43,1.304,3.0,2.763,0.023
05/05/2022,10:43:50,1.414,3.0,2.789,0.026
05/05/2022,10:44:43,1.742,4.0,2.814,0.025
05/05/2022,10:45:43,1.583,4.0,2.842,0.028
05/05/2022,10:46:43,1.286,3.0,2.869,0.027
05/05/2022,10:47:43,1.898,4.0,2.898,0.029
05/05/2022,10:48:43,1.736,4.0,2.928,0.03
05/05/2022,10:49:42,1.503,3.0,2.952,0.024
05/05/2022,10:50:43,1.858,4.0,2.981,0.029
05/05/2022,10:51:43,1.479,3.0,3.01,0.029
05/05/2022,10:52:42,1.502,3.0,3.037,0.027
05/05/2022,10:53:42,1.825,4.0,3.063,0.026
05/05/2022,10:54:43,1.119,3.0,3.085,0.022
05/05/2022,10:55:43,1.061,2.0,3.103,0.018
05/05/2022,10:56:51,1.827,4.0,3.129,0.026
05/05/2022,10:58:44,1.859,4.0,3.188,0.059
05/05/2022,10:59:42,1.873,4.0,3.218,0.03
05/05/2022,11:00:43,1.869,4.0,3.249,0.031
05/05/2022,11:01:43,1.881,4.0,3.28,0.031
05/05/2022,11:02:43,1.904,4.0,3.313,0.033
05/05/2022,11:03:43,1.922,4.0,3.345,0.032
05/05/2022,11:04:43,1.938,4.0,3.376,0.031
05/05/2022,11:05:43,1.971,5.0,3.408,0.032
05/05/2022,11:06:52,2.001,5.0,3.447,0.039
05/05/2022,11:08:45,1.985,5.0,3.5,0.053
05/05/2022,11:09:51,1.993,5.0,3.537,0.037
05/05/2022,11:11:44,1.439,3.0,3.596,0.059